TimeEST,TemperatureF,Dew PointF,Humidity,Sea Level PressureIn,VisibilityMPH,Wind Direction,Wind SpeedMPH,Gust SpeedMPH,PrecipitationIn,Events,Conditions,WindDirDegrees,DateUTC
12:54 AM,34.0,33.1,96,30.12,0.2,Calm,Calm,-,N/A,Fog,Fog,0,2013-01-13 05:54:00
1:54 AM,34.0,33.1,96,30.14,0.2,Calm,Calm,-,N/A,Fog,Fog,0,2013-01-13 06:54:00
2:54 AM,34.0,33.1,96,30.14,0.2,Calm,Calm,-,N/A,Fog,Fog,0,2013-01-13 07:54:00
3:54 AM,34.0,33.1,96,30.11,0.2,Calm,Calm,-,N/A,Fog,Fog,0,2013-01-13 08:54:00
4:54 AM,34.0,32.0,92,30.11,0.2,Calm,Calm,-,N/A,Fog,Fog,0,2013-01-13 09:54:00
5:25 AM,33.8,33.8,100,30.09,1.0,SSE,3.5,-,N/A,,Mist,160,2013-01-13 10:25:00
5:34 AM,33.8,33.8,100,30.08,0.8,Variable,3.5,-,N/A,,Mist,0,2013-01-13 10:34:00
5:54 AM,34.0,34.0,100,30.09,0.8,Calm,Calm,-,N/A,,Mist,0,2013-01-13 10:54:00
6:54 AM,34.0,33.1,96,30.09,0.8,South,5.8,-,N/A,,Mist,190,2013-01-13 11:54:00
7:54 AM,34.0,33.1,96,30.10,0.5,SSE,3.5,-,N/A,Fog,Fog,160,2013-01-13 12:54:00
8:12 AM,33.8,33.8,100,30.07,3.0,Calm,Calm,-,N/A,,Overcast,0,2013-01-13 13:12:00
8:25 AM,33.8,33.8,100,30.07,2.0,SSE,3.5,-,N/A,,Overcast,160,2013-01-13 13:25:00
8:30 AM,33.8,33.8,100,30.07,1.0,Variable,3.5,-,N/A,,Overcast,0,2013-01-13 13:30:00
8:38 AM,33.8,33.8,100,30.07,0.8,South,6.9,-,N/A,,Overcast,190,2013-01-13 13:38:00
8:54 AM,34.0,34.0,100,30.09,0.5,South,4.6,-,N/A,Fog,Fog,170,2013-01-13 13:54:00
9:54 AM,35.1,35.1,100,30.07,1.2,South,5.8,-,N/A,,Overcast,170,2013-01-13 14:54:00
10:05 AM,35.6,35.6,100,30.05,2.5,SSE,4.6,-,N/A,,Overcast,160,2013-01-13 15:05:00
10:26 AM,35.6,35.6,100,30.03,8.0,South,3.5,-,N/A,,Overcast,170,2013-01-13 15:26:00
10:54 AM,37.0,35.1,93,30.05,10.0,South,4.6,-,N/A,,Overcast,170,2013-01-13 15:54:00
11:01 AM,37.4,35.6,93,30.01,10.0,SSE,8.1,-,N/A,,Overcast,160,2013-01-13 16:01:00
11:54 AM,39.9,36.0,86,30.00,10.0,South,4.6,-,0.01,,Mostly Cloudy,180,2013-01-13 16:54:00
12:54 PM,42.1,37.0,82,29.95,10.0,South,9.2,-,N/A,,Mostly Cloudy,190,2013-01-13 17:54:00
1:54 PM,43.0,37.0,80,29.91,10.0,SSE,5.8,-,N/A,,Clear,160,2013-01-13 18:54:00
2:54 PM,44.1,37.0,76,29.88,10.0,SSE,6.9,-,N/A,,Clear,160,2013-01-13 19:54:00
3:54 PM,43.0,36.0,76,29.92,10.0,Calm,Calm,-,N/A,,Overcast,0,2013-01-13 20:54:00
4:54 PM,41.0,36.0,82,29.91,10.0,South,4.6,-,N/A,,Overcast,180,2013-01-13 21:54:00
5:05 PM,42.8,37.4,81,29.89,10.0,South,9.2,-,N/A,,Overcast,180,2013-01-13 22:05:00
5:26 PM,42.8,37.4,81,29.90,10.0,Calm,Calm,-,N/A,,Overcast,0,2013-01-13 22:26:00
5:54 PM,39.9,35.1,83,29.93,10.0,NW,3.5,-,N/A,,Overcast,320,2013-01-13 22:54:00
6:18 PM,39.2,35.6,87,29.90,10.0,Calm,Calm,-,N/A,,Overcast,0,2013-01-13 23:18:00
6:54 PM,41.0,36.0,82,29.94,10.0,South,5.8,-,N/A,,Overcast,190,2013-01-13 23:54:00
7:54 PM,37.9,35.1,89,29.92,10.0,SSE,3.5,-,N/A,,Partly Cloudy,160,2013-01-14 00:54:00
8:54 PM,39.9,37.0,89,29.93,10.0,Calm,Calm,-,N/A,,Mostly Cloudy,0,2013-01-14 01:54:00
9:54 PM,36.0,34.0,93,29.91,10.0,Calm,Calm,-,N/A,,Mostly Cloudy,0,2013-01-14 02:54:00
10:54 PM,39.0,36.0,89,29.92,5.0,Calm,Calm,-,N/A,,Overcast,0,2013-01-14 03:54:00
11:04 PM,35.6,35.6,100,29.91,8.0,Calm,Calm,-,N/A,,Mostly Cloudy,0,2013-01-14 04:04:00
11:21 PM,37.4,35.6,93,29.90,5.0,Calm,Calm,-,N/A,,Overcast,0,2013-01-14 04:21:00
11:54 PM,36.0,35.1,97,29.91,6.0,Calm,Calm,-,N/A,,Overcast,0,2013-01-14 04:54:00